| time (UTC) | temp F | wind direction | speed MPH | gust MPH | rain 1hr in | rain 24hr in | rain mn in | humidity % | barometer mb |
| 20260510011003 | 42 | 0 | 0.0 | 2.0 | 0.00 | 0.00 | 0.00 | 82 | 1016.1 |
| 20260510010003 | 42 | 335 | 1.0 | 2.0 | 0.00 | 0.00 | 0.00 | 82 | 1016.3 |
| 20260510005003 | 42 | 0 | 0.0 | 2.0 | 0.00 | 0.00 | 0.00 | 82 | 1016.3 |
| 20260510004003 | 42 | 0 | 0.0 | 2.0 | 0.00 | 0.00 | 0.00 | 82 | 1016.3 |
| 20260510003004 | 42 | 0 | 0.0 | 2.0 | 0.00 | 0.00 | 0.00 | 81 | 1016.3 |
| 20260510002008 | 41 | 0 | 0.0 | 0.0 | 0.00 | 0.00 | 0.00 | 82 | 1016.4 |
| 20260510001003 | 41 | 0 | 0.0 | 0.0 | 0.00 | 0.00 | 0.00 | 83 | 1016.3 |
| 20260510000003 | 41 | 0 | 0.0 | 0.0 | 0.00 | 0.00 | 0.00 | 82 | 1016.8 |
| 20260509235003 | 40 | 0 | 0.0 | 0.0 | 0.00 | 0.00 | 0.00 | 83 | 1016.7 |
| 20260509234003 | 39 | 0 | 0.0 | 0.0 | 0.00 | 0.00 | 0.00 | 83 | 1016.8 |
| 20260509233003 | 39 | 0 | 0.0 | 0.0 | 0.00 | 0.00 | 0.00 | 82 | 1016.7 |
| 20260509232003 | 41 | 0 | 0.0 | 0.0 | 0.00 | 0.00 | 0.00 | 79 | 1016.7 |
| 20260509231003 | 41 | 0 | 0.0 | 0.0 | 0.00 | 0.00 | 0.00 | 78 | 1016.9 |
| 20260509230004 | 42 | 0 | 0.0 | 0.0 | 0.00 | 0.00 | 0.00 | 77 | 1016.8 |
| 20260509225003 | 42 | 0 | 0.0 | 0.0 | 0.00 | 0.00 | 0.00 | 78 | 1017.1 |
| 20260509224004 | 42 | 0 | 0.0 | 0.0 | 0.00 | 0.00 | 0.00 | 76 | 1017.5 |
| 20260509223003 | 42 | 0 | 0.0 | 2.0 | 0.00 | 0.00 | 0.00 | 75 | 1017.2 |
| 20260509222003 | 43 | 270 | 1.0 | 2.0 | 0.00 | 0.00 | 0.00 | 75 | 1017.3 |
| 20260509221003 | 42 | 0 | 0.0 | 2.0 | 0.00 | 0.00 | 0.00 | 73 | 1017.3 |
| 20260509220024 | 42 | 340 | 1.0 | 2.0 | 0.00 | 0.00 | 0.00 | 73 | 1017.4 |
| 20260509215003 | 44 | 0 | 0.0 | 4.0 | 0.00 | 0.00 | 0.00 | 70 | 1017.7 |
| 20260509214003 | 44 | 267 | 1.0 | 2.0 | 0.00 | 0.00 | 0.00 | 69 | 1017.5 |
| 20260509213003 | 43 | 0 | 0.0 | 2.0 | 0.00 | 0.00 | 0.00 | 69 | 1017.6 |
| 20260509212003 | 42 | 0 | 0.0 | 2.0 | 0.00 | 0.00 | 0.00 | 71 | 1017.5 |
| 20260509211003 | 43 | 0 | 0.0 | 2.0 | 0.00 | 0.00 | 0.00 | 69 | 1017.8 |
| 20260509210003 | 44 | 0 | 0.0 | 0.0 | 0.00 | 0.00 | 0.00 | 67 | 1017.7 |
| 20260509205003 | 44 | 0 | 0.0 | 0.0 | 0.00 | 0.00 | 0.00 | 66 | 1017.8 |
| 20260509204003 | 44 | 0 | 0.0 | 2.0 | 0.00 | 0.00 | 0.00 | 65 | 1017.6 |
| 20260509203003 | 44 | 0 | 0.0 | 2.0 | 0.00 | 0.00 | 0.00 | 65 | 1017.8 |
| 20260509202003 | 44 | 0 | 0.0 | 2.0 | 0.00 | 0.00 | 0.00 | 64 | 1018.1 |
| 20260509201003 | 44 | 0 | 0.0 | 2.0 | 0.00 | 0.00 | 0.00 | 64 | 1017.9 |
| 20260509200004 | 45 | 0 | 0.0 | 2.0 | 0.00 | 0.00 | 0.00 | 62 | 1018.0 |
| 20260509195003 | 47 | 217 | 1.0 | 2.0 | 0.00 | 0.00 | 0.00 | 59 | 1018.2 |
| 20260509194003 | 47 | 0 | 0.0 | 2.0 | 0.00 | 0.00 | 0.00 | 59 | 1018.1 |
| 20260509193003 | 47 | 0 | 0.0 | 2.0 | 0.00 | 0.00 | 0.00 | 58 | 1018.0 |
| 20260509192003 | 48 | 0 | 0.0 | 4.0 | 0.00 | 0.00 | 0.00 | 56 | 1018.3 |
| 20260509191003 | 49 | 288 | 2.0 | 4.0 | 0.00 | 0.00 | 0.00 | 54 | 1018.3 |
| 20260509190003 | 49 | 278 | 1.0 | 4.0 | 0.00 | 0.00 | 0.00 | 54 | 1018.3 |
| 20260509185003 | 50 | 298 | 1.0 | 7.0 | 0.00 | 0.00 | 0.00 | 52 | 1018.2 |
| 20260509184003 | 50 | 304 | 1.0 | 4.0 | 0.00 | 0.00 | 0.00 | 53 | 1018.5 |
| 20260509183003 | 51 | 288 | 1.0 | 4.0 | 0.00 | 0.00 | 0.00 | 52 | 1018.5 |
| 20260509182003 | 51 | 0 | 0.0 | 7.0 | 0.00 | 0.00 | 0.00 | 52 | 1018.6 |
| 20260509181003 | 51 | 287 | 2.0 | 7.0 | 0.00 | 0.00 | 0.00 | 50 | 1018.4 |
| 20260509180003 | 52 | 310 | 3.0 | 9.0 | 0.00 | 0.00 | 0.00 | 49 | 1018.7 |
| 20260509175003 | 53 | 270 | 3.0 | 9.0 | 0.00 | 0.00 | 0.00 | 47 | 1018.5 |
| 20260509174003 | 53 | 287 | 3.0 | 8.0 | 0.00 | 0.00 | 0.00 | 47 | 1018.7 |
| 20260509173003 | 53 | 280 | 2.0 | 9.0 | 0.00 | 0.00 | 0.00 | 46 | 1018.5 |
| 20260509172003 | 54 | 274 | 3.0 | 11.0 | 0.00 | 0.00 | 0.00 | 44 | 1018.7 |
| 20260509171003 | 54 | 286 | 3.0 | 9.0 | 0.00 | 0.00 | 0.00 | 43 | 1018.7 |
| 20260509170004 | 54 | 286 | 4.0 | 14.0 | 0.00 | 0.00 | 0.00 | 43 | 1019.0 |
| 20260509165003 | 55 | 272 | 2.0 | 8.0 | 0.00 | 0.00 | 0.00 | 43 | 1019.0 |
| 20260509164003 | 55 | 312 | 3.0 | 16.0 | 0.00 | 0.00 | 0.00 | 42 | 1019.2 |
| 20260509163004 | 56 | 344 | 4.0 | 13.0 | 0.00 | 0.00 | 0.00 | 40 | 1019.1 |
| 20260509162003 | 56 | 316 | 3.0 | 13.0 | 0.00 | 0.00 | 0.00 | 40 | 1019.1 |
| 20260509161003 | 57 | 320 | 4.0 | 9.0 | 0.00 | 0.00 | 0.00 | 39 | 1019.1 |
| 20260509160003 | 58 | 277 | 4.0 | 11.0 | 0.00 | 0.00 | 0.00 | 41 | 1019.1 |
| 20260509155003 | 57 | 283 | 4.0 | 11.0 | 0.00 | 0.00 | 0.00 | 40 | 1019.5 |
| 20260509154004 | 57 | 289 | 6.0 | 14.0 | 0.00 | 0.00 | 0.00 | 39 | 1019.3 |
| 20260509153003 | 58 | 276 | 4.0 | 13.0 | 0.00 | 0.00 | 0.00 | 39 | 1019.6 |
| 20260509152003 | 58 | 283 | 4.0 | 11.0 | 0.00 | 0.00 | 0.00 | 39 | 1019.7 |
| 20260509151003 | 58 | 295 | 5.0 | 13.0 | 0.00 | 0.00 | 0.00 | 39 | 1019.8 |
| 20260509150003 | 58 | 300 | 5.0 | 11.0 | 0.00 | 0.00 | 0.00 | 37 | 1019.8 |
| 20260509145003 | 58 | 279 | 4.0 | 16.0 | 0.00 | 0.00 | 0.00 | 35 | 1019.9 |
| 20260509144003 | 58 | 288 | 6.0 | 11.0 | 0.00 | 0.00 | 0.00 | 34 | 1020.0 |
| 20260509143003 | 58 | 279 | 3.0 | 9.0 | 0.00 | 0.00 | 0.00 | 35 | 1019.9 |
| 20260509142004 | 57 | 299 | 4.0 | 8.0 | 0.00 | 0.00 | 0.00 | 36 | 1020.0 |
| 20260509141003 | 57 | 295 | 3.0 | 8.0 | 0.00 | 0.00 | 0.00 | 38 | 1020.0 |
| 20260509140005 | 57 | 319 | 4.0 | 11.0 | 0.00 | 0.00 | 0.00 | 39 | 1020.2 |
| 20260509135003 | 56 | 360 | 4.0 | 9.0 | 0.00 | 0.00 | 0.00 | 42 | 1020.1 |
| 20260509134003 | 56 | 23 | 2.0 | 6.0 | 0.00 | 0.00 | 0.00 | 53 | 1020.4 |
| 20260509133004 | 56 | 1 | 2.0 | 7.0 | 0.00 | 0.00 | 0.00 | 53 | 1020.4 |
| 20260509132003 | 56 | 350 | 4.0 | 8.0 | 0.00 | 0.00 | 0.00 | 53 | 1020.9 |
| 20260509131003 | 57 | 329 | 4.0 | 9.0 | 0.00 | 0.00 | 0.00 | 46 | 1020.4 |
| 20260509130004 | 56 | 355 | 2.0 | 4.0 | 0.00 | 0.00 | 0.00 | 56 | 1020.6 |
| 20260509125003 | 55 | 25 | 2.0 | 7.0 | 0.00 | 0.00 | 0.00 | 60 | 1020.6 |
| 20260509124003 | 55 | 35 | 1.0 | 4.0 | 0.00 | 0.00 | 0.00 | 62 | 1020.8 |
| 20260509123003 | 55 | 43 | 2.0 | 8.0 | 0.00 | 0.00 | 0.00 | 62 | 1020.9 |
| 20260509122003 | 55 | 37 | 2.0 | 6.0 | 0.00 | 0.00 | 0.00 | 61 | 1021.1 |
| 20260509121003 | 54 | 44 | 4.0 | 8.0 | 0.00 | 0.00 | 0.00 | 64 | 1021.3 |
| 20260509120004 | 54 | 45 | 4.0 | 8.0 | 0.00 | 0.00 | 0.00 | 65 | 1021.2 |
| 20260509115004 | 53 | 59 | 4.0 | 11.0 | 0.00 | 0.00 | 0.00 | 64 | 1021.0 |
| 20260509114003 | 55 | 30 | 4.0 | 13.0 | 0.00 | 0.00 | 0.00 | 59 | 1021.0 |
| 20260509113003 | 58 | 291 | 4.0 | 9.0 | 0.00 | 0.00 | 0.00 | 47 | 1021.1 |
| 20260509112003 | 58 | 328 | 2.0 | 9.0 | 0.00 | 0.00 | 0.00 | 48 | 1021.3 |
| 20260509111003 | 58 | 281 | 2.0 | 8.0 | 0.00 | 0.00 | 0.00 | 51 | 1021.3 |
| 20260509110004 | 58 | 283 | 3.0 | 7.0 | 0.00 | 0.00 | 0.00 | 49 | 1021.3 |
| 20260509105003 | 58 | 254 | 2.0 | 8.0 | 0.00 | 0.00 | 0.00 | 49 | 1021.2 |
| 20260509104004 | 59 | 280 | 4.0 | 11.0 | 0.00 | 0.00 | 0.00 | 47 | 1021.3 |
| 20260509103003 | 60 | 306 | 4.0 | 11.0 | 0.00 | 0.00 | 0.00 | 47 | 1021.3 |
| 20260509102003 | 60 | 264 | 3.0 | 9.0 | 0.00 | 0.00 | 0.00 | 47 | 1021.6 |
| 20260509101003 | 61 | 266 | 4.0 | 11.0 | 0.00 | 0.00 | 0.00 | 46 | 1021.5 |
| 20260509100005 | 59 | 298 | 4.0 | 11.0 | 0.00 | 0.00 | 0.00 | 50 | 1021.7 |
| 20260509095003 | 60 | 301 | 4.0 | 9.0 | 0.00 | 0.00 | 0.00 | 51 | 1021.8 |
| 20260509094003 | 59 | 272 | 4.0 | 11.0 | 0.00 | 0.00 | 0.00 | 53 | 1022.0 |
| 20260509093003 | 59 | 266 | 3.0 | 11.0 | 0.00 | 0.00 | 0.00 | 52 | 1022.0 |
| 20260509092003 | 59 | 306 | 3.0 | 8.0 | 0.00 | 0.00 | 0.00 | 52 | 1022.0 |
| 20260509091003 | 59 | 264 | 3.0 | 11.0 | 0.00 | 0.00 | 0.00 | 51 | 1022.2 |
| 20260509090003 | 58 | 271 | 4.0 | 11.0 | 0.00 | 0.00 | 0.00 | 51 | 1022.1 |
| 20260509085003 | 58 | 263 | 4.0 | 11.0 | 0.00 | 0.00 | 0.00 | 50 | 1022.5 |
| 20260509084003 | 57 | 248 | 5.0 | 9.0 | 0.00 | 0.00 | 0.00 | 54 | 1022.3 |
| 20260509083004 | 57 | 245 | 3.0 | 7.0 | 0.00 | 0.00 | 0.00 | 56 | 1022.5 |
| 20260509082003 | 57 | 255 | 1.0 | 7.0 | 0.00 | 0.00 | 0.00 | 58 | 1022.6 |
| 20260509081004 | 56 | 237 | 2.0 | 7.0 | 0.00 | 0.00 | 0.00 | 59 | 1022.5 |
| 20260509080004 | 56 | 248 | 2.0 | 7.0 | 0.00 | 0.00 | 0.00 | 60 | 1022.5 |
| 20260509075003 | 56 | 226 | 3.0 | 4.0 | 0.00 | 0.00 | 0.00 | 59 | 1022.6 |
| 20260509074004 | 57 | 271 | 2.0 | 8.0 | 0.00 | 0.00 | 0.00 | 57 | 1022.6 |
| 20260509073003 | 57 | 271 | 2.0 | 8.0 | 0.00 | 0.00 | 0.00 | 54 | 1022.6 |
| 20260509072003 | 56 | 307 | 2.0 | 4.0 | 0.00 | 0.00 | 0.00 | 57 | 1022.6 |
| 20260509071003 | 55 | 236 | 1.0 | 6.0 | 0.00 | 0.00 | 0.00 | 63 | 1022.7 |
| 20260509070003 | 54 | 233 | 2.0 | 4.0 | 0.00 | 0.00 | 0.00 | 63 | 1022.8 |
| 20260509065003 | 53 | 234 | 1.0 | 4.0 | 0.00 | 0.00 | 0.00 | 67 | 1022.7 |
| 20260509063004 | 51 | 220 | 2.0 | 4.0 | 0.00 | 0.00 | 0.00 | 68 | 1023.1 |
| 20260509062003 | 50 | 231 | 2.0 | 6.0 | 0.00 | 0.00 | 0.00 | 69 | 1023.0 |
| 20260509061003 | 49 | 239 | 2.0 | 4.0 | 0.00 | 0.00 | 0.00 | 70 | 1023.0 |
| 20260509060004 | 48 | 244 | 1.0 | 4.0 | 0.00 | 0.00 | 0.00 | 73 | 1023.1 |
| 20260509055003 | 48 | 238 | 2.0 | 4.0 | 0.00 | 0.00 | 0.00 | 72 | 1023.1 |
| 20260509054003 | 47 | 232 | 1.0 | 4.0 | 0.00 | 0.00 | 0.00 | 74 | 1022.9 |
| 20260509053003 | 47 | 223 | 2.0 | 6.0 | 0.00 | 0.00 | 0.00 | 74 | 1023.1 |
| 20260509052003 | 46 | 227 | 3.0 | 6.0 | 0.00 | 0.00 | 0.00 | 75 | 1023.1 |
| 20260509051003 | 46 | 230 | 2.0 | 4.0 | 0.00 | 0.00 | 0.00 | 76 | 1023.2 |
| 20260509050003 | 46 | 234 | 2.0 | 4.0 | 0.00 | 0.00 | 0.00 | 77 | 1023.1 |
| 20260509045003 | 45 | 0 | 0.0 | 2.0 | 0.00 | 0.00 | 0.00 | 78 | 1023.2 |
| 20260509044003 | 44 | 0 | 0.0 | 2.0 | 0.00 | 0.00 | 0.00 | 80 | 1023.2 |
| 20260509043003 | 43 | 0 | 0.0 | 2.0 | 0.00 | 0.00 | 0.00 | 81 | 1022.9 |
| 20260509042004 | 42 | 0 | 0.0 | 0.0 | 0.00 | 0.00 | 0.00 | 80 | 1023.2 |
| 20260509041003 | 41 | 0 | 0.0 | 0.0 | 0.00 | 0.00 | 0.00 | 81 | 1023.5 |
| 20260509040004 | 41 | 0 | 0.0 | 0.0 | 0.00 | 0.00 | 0.00 | 81 | 1023.2 |
| 20260509035003 | 42 | 0 | 0.0 | 0.0 | 0.00 | 0.00 | 0.00 | 80 | 1023.3 |
| 20260509034003 | 41 | 0 | 0.0 | 0.0 | 0.00 | 0.00 | 0.00 | 82 | 1023.6 |
| 20260509033003 | 41 | 0 | 0.0 | 0.0 | 0.00 | 0.00 | 0.00 | 82 | 1023.2 |
| 20260509032003 | 39 | 0 | 0.0 | 0.0 | 0.00 | 0.00 | 0.00 | 85 | 1023.2 |
| 20260509031003 | 38 | 0 | 0.0 | 0.0 | 0.00 | 0.00 | 0.00 | 86 | 1023.4 |
| 20260509030004 | 39 | 0 | 0.0 | 0.0 | 0.00 | 0.00 | 0.00 | 88 | 1023.4 |
| 20260509025003 | 39 | 0 | 0.0 | 0.0 | 0.00 | 0.00 | 0.00 | 87 | 1023.4 |
| 20260509024003 | 39 | 0 | 0.0 | 0.0 | 0.00 | 0.00 | 0.00 | 88 | 1023.7 |
| 20260509023003 | 38 | 0 | 0.0 | 0.0 | 0.00 | 0.00 | 0.00 | 87 | 1023.8 |
| 20260509022003 | 40 | 0 | 0.0 | 0.0 | 0.00 | 0.00 | 0.00 | 87 | 1023.7 |
| 20260509021003 | 40 | 0 | 0.0 | 2.0 | 0.00 | 0.00 | 0.00 | 85 | 1023.7 |
| 20260509020003 | 41 | 292 | 1.0 | 2.0 | 0.00 | 0.00 | 0.00 | 84 | 1023.5 |
| 20260509015003 | 40 | 0 | 0.0 | 0.0 | 0.00 | 0.00 | 0.00 | 84 | 1023.5 |
| 20260509014003 | 40 | 0 | 0.0 | 0.0 | 0.00 | 0.00 | 0.00 | 84 | 1023.7 |
| 20260509013003 | 41 | 0 | 0.0 | 2.0 | 0.00 | 0.00 | 0.00 | 83 | 1023.7 |
| 20260509012003 | 40 | 0 | 0.0 | 0.0 | 0.00 | 0.00 | 0.00 | 83 | 1023.7 |